Year,Month,Day,Hour,Minute,Value (Times are PST for temperature in C)
2008,09,01,00,00,9.20
2008,09,01,00,01,9.20
2008,09,01,00,02,9.20
2008,09,01,00,03,9.20
2008,09,01,00,04,9.20
2008,09,01,00,05,9.20
2008,09,01,00,06,9.20
2008,09,01,00,07,9.20
2008,09,01,00,08,9.20
2008,09,01,00,09,9.20
2008,09,01,00,10,9.20
2008,09,01,00,11,9.20
2008,09,01,00,12,9.20
2008,09,01,00,13,9.30
2008,09,01,00,14,9.30
2008,09,01,00,15,9.30
2008,09,01,00,16,9.20
2008,09,01,00,17,9.20
2008,09,01,00,18,9.20
2008,09,01,00,19,9.20
2008,09,01,00,20,9.20
2008,09,01,00,21,9.20
2008,09,01,00,22,9.30
2008,09,01,00,23,9.30
2008,09,01,00,24,9.30
2008,09,01,00,25,9.30
2008,09,01,00,26,9.30
2008,09,01,00,27,9.30
2008,09,01,00,28,9.30
2008,09,01,00,29,9.30
2008,09,01,00,30,9.30
2008,09,01,00,31,9.30
2008,09,01,00,32,9.30
2008,09,01,00,33,9.30
2008,09,01,00,34,9.30
2008,09,01,00,35,9.30
2008,09,01,00,36,9.30
2008,09,01,00,37,9.30
2008,09,01,00,38,9.20
2008,09,01,00,39,9.20
2008,09,01,00,40,9.20
2008,09,01,00,41,9.20
2008,09,01,00,42,9.20
2008,09,01,00,43,9.20
2008,09,01,00,44,9.10
2008,09,01,00,45,9.10
2008,09,01,00,46,9.00
2008,09,01,00,47,9.00
2008,09,01,00,48,8.90
2008,09,01,00,49,8.90
2008,09,01,00,50,8.90
2008,09,01,00,51,8.80
2008,09,01,00,52,8.80
2008,09,01,00,53,8.80
2008,09,01,00,54,8.80
2008,09,01,00,55,8.70
2008,09,01,00,56,8.70
2008,09,01,00,57,8.70
2008,09,01,00,58,8.70
2008,09,01,00,59,8.70
2008,09,01,01,00,8.70
2008,09,01,01,01,8.70
2008,09,01,01,02,8.70
2008,09,01,01,03,8.70
2008,09,01,01,04,8.70
2008,09,01,01,05,8.60
2008,09,01,01,06,8.60
2008,09,01,01,07,8.70
2008,09,01,01,08,8.60
2008,09,01,01,09,8.60
2008,09,01,01,10,8.60
2008,09,01,01,11,8.60
2008,09,01,01,12,8.60
2008,09,01,01,13,8.60
2008,09,01,01,14,8.60
2008,09,01,01,15,8.60
2008,09,01,01,16,8.60
2008,09,01,01,17,8.60
2008,09,01,01,18,8.60
2008,09,01,01,19,8.60
2008,09,01,01,20,8.50
2008,09,01,01,21,8.50
2008,09,01,01,22,8.50
2008,09,01,01,23,8.50
2008,09,01,01,24,8.50
2008,09,01,01,25,8.40
2008,09,01,01,26,8.40
2008,09,01,01,27,8.40
2008,09,01,01,28,8.40
2008,09,01,01,29,8.30
2008,09,01,01,30,8.30
2008,09,01,01,31,8.30
2008,09,01,01,32,8.30
2008,09,01,01,33,8.30
2008,09,01,01,34,8.30
2008,09,01,01,35,8.30
2008,09,01,01,36,8.30
2008,09,01,01,37,8.30
2008,09,01,01,38,8.30
2008,09,01,01,39,8.40
2008,09,01,01,40,8.40
2008,09,01,01,41,8.40
2008,09,01,01,42,8.40
2008,09,01,01,43,8.40
2008,09,01,01,44,8.40
2008,09,01,01,45,8.40
2008,09,01,01,46,8.40
2008,09,01,01,47,8.40
2008,09,01,01,48,8.40
2008,09,01,01,49,8.40
2008,09,01,01,50,8.40
2008,09,01,01,51,8.40
2008,09,01,01,52,8.30
2008,09,01,01,53,8.30
2008,09,01,01,54,8.30
2008,09,01,01,55,8.30
2008,09,01,01,56,8.30
2008,09,01,01,57,8.30
2008,09,01,01,58,8.30
2008,09,01,01,59,8.40
2008,09,01,02,00,8.40
2008,09,01,02,01,8.40
2008,09,01,02,02,8.40
2008,09,01,02,03,8.50
2008,09,01,02,04,8.50
2008,09,01,02,05,8.60
2008,09,01,02,06,8.60
2008,09,01,02,07,8.60
2008,09,01,02,08,8.60
2008,09,01,02,09,8.60
2008,09,01,02,10,8.70
2008,09,01,02,11,8.70
2008,09,01,02,12,8.70
2008,09,01,02,13,8.60
2008,09,01,02,14,8.60
2008,09,01,02,15,8.60
2008,09,01,02,16,8.60
2008,09,01,02,17,8.60
2008,09,01,02,18,8.60
2008,09,01,02,19,8.60
2008,09,01,02,20,8.60
2008,09,01,02,21,8.60
2008,09,01,02,22,8.60
2008,09,01,02,23,8.60
2008,09,01,02,24,8.60
2008,09,01,02,25,8.60
2008,09,01,02,26,8.60
2008,09,01,02,27,8.60
2008,09,01,02,28,8.60
2008,09,01,02,29,8.60
2008,09,01,02,30,8.60
2008,09,01,02,31,8.60
2008,09,01,02,32,8.60
2008,09,01,02,33,8.50
2008,09,01,02,34,8.50
2008,09,01,02,35,8.40
2008,09,01,02,36,8.40
2008,09,01,02,37,8.40
2008,09,01,02,38,8.40
2008,09,01,02,39,8.40
2008,09,01,02,40,8.30
2008,09,01,02,41,8.30
2008,09,01,02,42,8.30
2008,09,01,02,43,8.30
2008,09,01,02,44,8.30
2008,09,01,02,45,8.30
2008,09,01,02,46,8.20
2008,09,01,02,47,8.20
2008,09,01,02,48,8.20
2008,09,01,02,49,8.10
2008,09,01,02,50,8.10
2008,09,01,02,51,8.00
2008,09,01,02,52,7.90
2008,09,01,02,53,7.90
2008,09,01,02,54,7.90
2008,09,01,02,55,7.90
2008,09,01,02,56,7.90
2008,09,01,02,57,7.90
2008,09,01,02,58,7.90
2008,09,01,02,59,8.00
2008,09,01,03,00,8.00
2008,09,01,03,01,8.00
2008,09,01,03,02,8.00
2008,09,01,03,03,8.00
2008,09,01,03,04,8.00
2008,09,01,03,05,8.00
2008,09,01,03,06,8.00
2008,09,01,03,07,8.00
2008,09,01,03,08,8.00
2008,09,01,03,09,8.00
2008,09,01,03,10,7.90
2008,09,01,03,11,7.90
2008,09,01,03,12,7.90
2008,09,01,03,13,7.90
2008,09,01,03,14,7.90
2008,09,01,03,15,7.80
2008,09,01,03,16,7.80
2008,09,01,03,17,7.80
2008,09,01,03,18,7.90
2008,09,01,03,19,7.90
2008,09,01,03,20,7.90
2008,09,01,03,21,7.90
2008,09,01,03,22,7.90
2008,09,01,03,23,8.00
2008,09,01,03,24,8.00
2008,09,01,03,25,7.90
2008,09,01,03,26,7.90
2008,09,01,03,27,7.90
2008,09,01,03,28,7.90
2008,09,01,03,29,7.90
2008,09,01,03,30,7.90
2008,09,01,03,31,7.90
2008,09,01,03,32,7.90
2008,09,01,03,33,7.90
2008,09,01,03,34,7.90
2008,09,01,03,35,7.90
2008,09,01,03,36,7.90
2008,09,01,03,37,7.90
2008,09,01,03,38,7.90
2008,09,01,03,39,7.90
2008,09,01,03,40,7.90
2008,09,01,03,41,7.90
2008,09,01,03,42,7.80
2008,09,01,03,43,7.80
2008,09,01,03,44,7.80
2008,09,01,03,45,7.80
2008,09,01,03,46,7.80
2008,09,01,03,47,7.80
2008,09,01,03,48,7.90
2008,09,01,03,49,7.90
2008,09,01,03,50,7.90
2008,09,01,03,51,7.90
2008,09,01,03,52,7.90
2008,09,01,03,53,8.00
2008,09,01,03,54,8.00
2008,09,01,03,55,7.90
2008,09,01,03,56,7.90
2008,09,01,03,57,7.90
2008,09,01,03,58,7.90
2008,09,01,03,59,8.00
2008,09,01,04,00,8.10
2008,09,01,04,01,8.10
2008,09,01,04,02,8.10
2008,09,01,04,03,8.10
2008,09,01,04,04,8.10
2008,09,01,04,05,8.10
2008,09,01,04,06,8.20
2008,09,01,04,07,8.20
2008,09,01,04,08,8.20
2008,09,01,04,09,8.20
2008,09,01,04,10,8.20
2008,09,01,04,11,8.20
2008,09,01,04,12,8.20
2008,09,01,04,13,8.20
2008,09,01,04,14,8.10
2008,09,01,04,15,8.10
2008,09,01,04,16,8.10
2008,09,01,04,17,8.00
2008,09,01,04,18,8.00
2008,09,01,04,19,8.00
2008,09,01,04,20,7.90
2008,09,01,04,21,7.80
2008,09,01,04,22,7.80
2008,09,01,04,23,7.80
2008,09,01,04,24,7.80
2008,09,01,04,25,7.80
2008,09,01,04,26,7.70
2008,09,01,04,27,7.70
2008,09,01,04,28,7.70
2008,09,01,04,29,7.70
2008,09,01,04,30,7.70
2008,09,01,04,31,7.70
2008,09,01,04,32,7.70
2008,09,01,04,33,7.70
2008,09,01,04,34,7.70
2008,09,01,04,35,7.70
2008,09,01,04,36,7.70
2008,09,01,04,37,7.70
2008,09,01,04,38,7.70
2008,09,01,04,39,7.80
2008,09,01,04,40,7.80
2008,09,01,04,41,7.80
2008,09,01,04,42,7.80
2008,09,01,04,43,7.80
2008,09,01,04,44,7.80
2008,09,01,04,45,7.80
2008,09,01,04,46,7.80
2008,09,01,04,47,7.80
2008,09,01,04,48,7.80
2008,09,01,04,49,7.90
2008,09,01,04,50,8.00
2008,09,01,04,51,8.00
2008,09,01,04,52,8.10
2008,09,01,04,53,8.10
2008,09,01,04,54,8.10
2008,09,01,04,55,8.00
2008,09,01,04,56,8.00
2008,09,01,04,57,8.00
2008,09,01,04,58,8.00
2008,09,01,04,59,7.90
2008,09,01,05,00,7.80
2008,09,01,05,01,7.80
2008,09,01,05,02,7.80
2008,09,01,05,03,7.70
2008,09,01,05,04,7.70
2008,09,01,05,05,7.70
2008,09,01,05,06,7.80
2008,09,01,05,07,7.80
2008,09,01,05,08,7.80
2008,09,01,05,09,7.80
2008,09,01,05,10,7.70
2008,09,01,05,11,7.80
2008,09,01,05,12,7.90
2008,09,01,05,13,7.90
2008,09,01,05,14,7.90
2008,09,01,05,15,7.90
2008,09,01,05,16,7.80
2008,09,01,05,17,7.80
2008,09,01,05,18,7.80
2008,09,01,05,19,7.80
2008,09,01,05,20,7.80
2008,09,01,05,21,7.80
2008,09,01,05,22,7.70
2008,09,01,05,23,7.70
2008,09,01,05,24,7.70
2008,09,01,05,25,7.70
2008,09,01,05,26,7.70
2008,09,01,05,27,7.70
2008,09,01,05,28,7.60
2008,09,01,05,29,7.70
2008,09,01,05,30,7.70
2008,09,01,05,31,7.60
2008,09,01,05,32,7.60
2008,09,01,05,33,7.60
2008,09,01,05,34,7.60
2008,09,01,05,35,7.50
2008,09,01,05,36,7.50
2008,09,01,05,37,7.50
2008,09,01,05,38,7.50
2008,09,01,05,39,7.50
2008,09,01,05,40,7.50
2008,09,01,05,41,7.60
2008,09,01,05,42,7.60
2008,09,01,05,43,7.60
2008,09,01,05,44,7.60
2008,09,01,05,45,7.70
2008,09,01,05,46,7.70
2008,09,01,05,47,7.80
2008,09,01,05,48,7.80
2008,09,01,05,49,7.80
2008,09,01,05,50,7.90
2008,09,01,05,51,7.90
2008,09,01,05,52,7.90
2008,09,01,05,53,7.90
2008,09,01,05,54,7.90
2008,09,01,05,55,7.90
2008,09,01,05,56,7.80
2008,09,01,05,57,7.80
2008,09,01,05,58,7.70
2008,09,01,05,59,7.60
2008,09,01,06,00,7.60
2008,09,01,06,01,7.50
2008,09,01,06,02,7.50
2008,09,01,06,03,7.50
2008,09,01,06,04,7.60
2008,09,01,06,05,7.60
2008,09,01,06,06,7.70
2008,09,01,06,07,7.70
2008,09,01,06,08,7.60
2008,09,01,06,09,7.60
2008,09,01,06,10,7.60
2008,09,01,06,11,7.50
2008,09,01,06,12,7.50
2008,09,01,06,13,7.50
2008,09,01,06,14,7.50
2008,09,01,06,15,7.50
2008,09,01,06,16,7.50
2008,09,01,06,17,7.50
2008,09,01,06,18,7.50
2008,09,01,06,19,7.50
2008,09,01,06,20,7.40
2008,09,01,06,21,7.40
2008,09,01,06,22,7.40
2008,09,01,06,23,7.40
2008,09,01,06,24,7.50
2008,09,01,06,25,7.50
2008,09,01,06,26,7.50
2008,09,01,06,27,7.50
2008,09,01,06,28,7.50
2008,09,01,06,29,7.50
2008,09,01,06,30,7.50
2008,09,01,06,31,7.60
2008,09,01,06,32,7.60
2008,09,01,06,33,7.50
2008,09,01,06,34,7.50
2008,09,01,06,35,7.50
2008,09,01,06,36,7.50
2008,09,01,06,37,7.50
2008,09,01,06,38,7.50
2008,09,01,06,39,7.50
2008,09,01,06,40,7.50
2008,09,01,06,41,7.50
2008,09,01,06,42,7.60
2008,09,01,06,43,7.60
2008,09,01,06,44,7.60
2008,09,01,06,45,7.60
2008,09,01,06,46,7.60
2008,09,01,06,47,7.60
2008,09,01,06,48,7.60
2008,09,01,06,49,7.50
2008,09,01,06,50,7.50
2008,09,01,06,51,7.40
2008,09,01,06,52,7.40
2008,09,01,06,53,7.40
2008,09,01,06,54,7.40
2008,09,01,06,55,7.30
2008,09,01,06,56,7.30
2008,09,01,06,57,7.30
2008,09,01,06,58,7.30
2008,09,01,06,59,7.30
2008,09,01,07,00,7.30
2008,09,01,07,01,7.20
2008,09,01,07,02,7.20
2008,09,01,07,03,7.20
2008,09,01,07,04,7.20
2008,09,01,07,05,7.20
2008,09,01,07,06,7.30
2008,09,01,07,07,7.30
2008,09,01,07,08,7.30
2008,09,01,07,09,7.30
2008,09,01,07,10,7.30
2008,09,01,07,11,7.30
2008,09,01,07,12,7.30
2008,09,01,07,13,7.40
2008,09,01,07,14,7.40
2008,09,01,07,15,7.40
2008,09,01,07,16,7.40
2008,09,01,07,17,7.50
2008,09,01,07,18,7.50
2008,09,01,07,19,7.60
2008,09,01,07,20,7.60
2008,09,01,07,21,7.60
2008,09,01,07,22,7.70
2008,09,01,07,23,7.70
2008,09,01,07,24,7.70
2008,09,01,07,25,7.70
2008,09,01,07,26,7.80
2008,09,01,07,27,7.80
2008,09,01,07,28,7.80
2008,09,01,07,29,7.80
2008,09,01,07,30,7.80
2008,09,01,07,31,7.80
2008,09,01,07,32,7.80
2008,09,01,07,33,7.80
2008,09,01,07,34,7.90
2008,09,01,07,35,7.90
2008,09,01,07,36,8.00
2008,09,01,07,37,8.00
2008,09,01,07,38,8.10
2008,09,01,07,39,8.10
2008,09,01,07,40,8.20
2008,09,01,07,41,8.20
2008,09,01,07,42,8.30
2008,09,01,07,43,8.30
2008,09,01,07,44,8.30
2008,09,01,07,45,8.40
2008,09,01,07,46,8.40
2008,09,01,07,47,8.50
2008,09,01,07,48,8.50
2008,09,01,07,49,8.60
2008,09,01,07,50,8.70
2008,09,01,07,51,8.80
2008,09,01,07,52,8.80
2008,09,01,07,53,8.90
2008,09,01,07,54,9.00
2008,09,01,07,55,9.00
2008,09,01,07,56,9.10
2008,09,01,07,57,9.20
2008,09,01,07,58,9.20
2008,09,01,07,59,9.30
2008,09,01,08,00,9.40
2008,09,01,08,01,9.50
2008,09,01,08,02,9.50
2008,09,01,08,03,9.60
2008,09,01,08,04,9.60
2008,09,01,08,05,9.70
2008,09,01,08,06,9.70
2008,09,01,08,07,9.70
2008,09,01,08,08,9.80
2008,09,01,08,09,9.80
2008,09,01,08,10,9.90
2008,09,01,08,11,9.90
2008,09,01,08,12,10.00
2008,09,01,08,13,10.10
2008,09,01,08,14,10.10
2008,09,01,08,15,10.10
2008,09,01,08,16,10.10
2008,09,01,08,17,10.10
2008,09,01,08,18,10.20
2008,09,01,08,19,10.20
2008,09,01,08,20,10.10
2008,09,01,08,21,10.10
2008,09,01,08,22,10.10
2008,09,01,08,23,10.10
2008,09,01,08,24,10.20
2008,09,01,08,25,10.20
2008,09,01,08,26,10.30
2008,09,01,08,27,10.30
2008,09,01,08,28,10.40
2008,09,01,08,29,10.40
2008,09,01,08,30,10.50
2008,09,01,08,31,10.60
2008,09,01,08,32,10.70
2008,09,01,08,33,10.80
2008,09,01,08,34,10.90
2008,09,01,08,35,10.90
2008,09,01,08,36,10.90
2008,09,01,08,37,10.90
2008,09,01,08,38,10.90
2008,09,01,08,39,10.90
2008,09,01,08,40,10.90
2008,09,01,08,41,10.90
2008,09,01,08,42,10.90
2008,09,01,08,43,10.90
2008,09,01,08,44,10.90
2008,09,01,08,45,10.90
2008,09,01,08,46,10.90
2008,09,01,08,47,10.90
2008,09,01,08,48,10.90
2008,09,01,08,49,10.90
2008,09,01,08,50,10.90
2008,09,01,08,51,10.90
2008,09,01,08,52,10.90
2008,09,01,08,53,10.80
2008,09,01,08,54,10.80
2008,09,01,08,55,10.80
2008,09,01,08,56,10.80
2008,09,01,08,57,10.80
2008,09,01,08,58,10.80
2008,09,01,08,59,10.80
2008,09,01,09,00,10.80
2008,09,01,09,01,10.80
2008,09,01,09,02,10.80
2008,09,01,09,03,10.80
2008,09,01,09,04,10.90
2008,09,01,09,05,10.90
2008,09,01,09,06,10.90
2008,09,01,09,07,10.90
2008,09,01,09,08,10.90
2008,09,01,09,09,10.90
2008,09,01,09,10,10.90
2008,09,01,09,11,10.80
2008,09,01,09,12,10.80
2008,09,01,09,13,10.80
2008,09,01,09,14,10.80
2008,09,01,09,15,10.80
2008,09,01,09,16,10.80
2008,09,01,09,17,10.80
2008,09,01,09,18,10.80
2008,09,01,09,19,10.70
2008,09,01,09,20,10.80
2008,09,01,09,21,10.80
2008,09,01,09,22,10.70
2008,09,01,09,23,10.70
2008,09,01,09,24,10.70
2008,09,01,09,25,10.70
2008,09,01,09,26,10.70
2008,09,01,09,27,10.70
2008,09,01,09,28,10.70
2008,09,01,09,29,10.70
2008,09,01,09,30,10.80
2008,09,01,09,31,10.80
2008,09,01,09,32,10.90
2008,09,01,09,33,10.90
2008,09,01,09,34,11.00
2008,09,01,09,35,11.10
2008,09,01,09,36,11.10
2008,09,01,09,37,11.10
2008,09,01,09,38,11.10
2008,09,01,09,39,11.10
2008,09,01,09,40,11.10
2008,09,01,09,41,11.20
2008,09,01,09,42,11.20
2008,09,01,09,43,11.20
2008,09,01,09,44,11.30
2008,09,01,09,45,11.30
2008,09,01,09,46,11.30
2008,09,01,09,47,11.40
2008,09,01,09,48,11.40
2008,09,01,09,49,11.40
2008,09,01,09,50,11.40
2008,09,01,09,51,11.40
2008,09,01,09,52,11.40
2008,09,01,09,53,11.40
2008,09,01,09,54,11.40
2008,09,01,09,55,11.40
2008,09,01,09,56,11.40
2008,09,01,09,57,11.50
2008,09,01,09,58,11.50
2008,09,01,09,59,11.60
2008,09,01,10,00,11.60
2008,09,01,10,01,11.60
2008,09,01,10,02,11.50
2008,09,01,10,03,11.50
2008,09,01,10,04,11.60
2008,09,01,10,05,11.60
2008,09,01,10,06,11.70
2008,09,01,10,07,11.80
2008,09,01,10,08,11.80
2008,09,01,10,09,11.90
2008,09,01,10,10,11.90
2008,09,01,10,11,11.90
2008,09,01,10,12,12.00
2008,09,01,10,13,12.00
2008,09,01,10,14,12.10
2008,09,01,10,15,12.10
2008,09,01,10,16,12.00
2008,09,01,10,17,11.90
2008,09,01,10,18,11.90
2008,09,01,10,19,11.80
2008,09,01,10,20,11.80
2008,09,01,10,21,11.80
2008,09,01,10,22,11.80
2008,09,01,10,23,11.80
2008,09,01,10,24,11.90
2008,09,01,10,25,11.90
2008,09,01,10,26,11.90
2008,09,01,10,27,11.90
2008,09,01,10,28,12.00
2008,09,01,10,29,12.00
2008,09,01,10,30,12.00
2008,09,01,10,31,12.00
2008,09,01,10,32,11.90
2008,09,01,10,33,11.80
2008,09,01,10,34,11.70
2008,09,01,10,35,11.60
2008,09,01,10,36,11.70
2008,09,01,10,37,11.70
2008,09,01,10,38,11.70
2008,09,01,10,39,11.70
2008,09,01,10,40,11.70
2008,09,01,10,41,11.80
2008,09,01,10,42,11.80
2008,09,01,10,43,11.80
2008,09,01,10,44,11.80
2008,09,01,10,45,11.80
2008,09,01,10,46,11.90
2008,09,01,10,47,12.00
2008,09,01,10,48,12.00
2008,09,01,10,49,12.00
2008,09,01,10,50,12.00
2008,09,01,10,51,12.00
2008,09,01,10,52,12.00
2008,09,01,10,53,12.00
2008,09,01,10,54,12.00
2008,09,01,10,55,12.10
2008,09,01,10,56,12.20
2008,09,01,10,57,12.20
2008,09,01,10,58,12.20
2008,09,01,10,59,12.20
2008,09,01,11,00,12.30
2008,09,01,11,01,12.40
2008,09,01,11,02,12.50
2008,09,01,11,03,12.60
2008,09,01,11,04,12.60
2008,09,01,11,05,12.70
2008,09,01,11,06,12.70
2008,09,01,11,07,12.70
2008,09,01,11,08,12.60
2008,09,01,11,09,12.60
2008,09,01,11,10,12.50
2008,09,01,11,11,12.50
2008,09,01,11,12,12.50
2008,09,01,11,13,12.40
2008,09,01,11,14,12.40
2008,09,01,11,15,12.30
2008,09,01,11,16,12.30
2008,09,01,11,17,12.40
2008,09,01,11,18,12.40
2008,09,01,11,19,12.50
2008,09,01,11,20,12.70
2008,09,01,11,21,12.70
2008,09,01,11,22,12.70
2008,09,01,11,23,12.80
2008,09,01,11,24,12.70
2008,09,01,11,25,12.70
2008,09,01,11,26,12.70
2008,09,01,11,27,12.70
2008,09,01,11,28,12.60
2008,09,01,11,29,12.70
2008,09,01,11,30,12.60
2008,09,01,11,31,12.60
2008,09,01,11,32,12.50
2008,09,01,11,33,12.50
2008,09,01,11,34,12.50
2008,09,01,11,35,12.50
2008,09,01,11,36,12.50
2008,09,01,11,37,12.50
2008,09,01,11,38,12.50
2008,09,01,11,39,12.60
2008,09,01,11,40,12.70
2008,09,01,11,41,12.70
2008,09,01,11,42,12.70
2008,09,01,11,43,12.70
2008,09,01,11,44,12.60
2008,09,01,11,45,12.60
2008,09,01,11,46,12.60
2008,09,01,11,47,12.60
2008,09,01,11,48,12.60
2008,09,01,11,49,12.60
2008,09,01,11,50,12.70
2008,09,01,11,51,12.70
2008,09,01,11,52,12.80
2008,09,01,11,53,12.80
2008,09,01,11,54,12.80
2008,09,01,11,55,12.80
2008,09,01,11,56,12.90
2008,09,01,11,57,12.90
2008,09,01,11,58,12.90
2008,09,01,11,59,12.90
2008,09,01,12,00,12.90
2008,09,01,12,01,12.90
2008,09,01,12,02,12.90
2008,09,01,12,03,12.90
2008,09,01,12,04,12.90
2008,09,01,12,05,13.00
2008,09,01,12,06,13.10
2008,09,01,12,07,13.10
2008,09,01,12,08,13.00
2008,09,01,12,09,12.90
2008,09,01,12,10,12.90
2008,09,01,12,11,13.00
2008,09,01,12,12,13.10
2008,09,01,12,13,13.20
2008,09,01,12,14,13.20
2008,09,01,12,15,13.30
2008,09,01,12,16,13.20
2008,09,01,12,17,13.20
2008,09,01,12,18,13.20
2008,09,01,12,19,13.20
2008,09,01,12,20,13.20
2008,09,01,12,21,13.20
2008,09,01,12,22,13.20
2008,09,01,12,23,13.20
2008,09,01,12,24,13.20
2008,09,01,12,25,13.10
2008,09,01,12,26,13.10
2008,09,01,12,27,13.00
2008,09,01,12,28,12.80
2008,09,01,12,29,12.70
2008,09,01,12,30,12.60
2008,09,01,12,31,12.60
2008,09,01,12,32,12.60
2008,09,01,12,33,12.60
2008,09,01,12,34,12.60
2008,09,01,12,35,12.60
2008,09,01,12,36,12.60
2008,09,01,12,37,12.60
2008,09,01,12,38,12.70
2008,09,01,12,39,12.80
2008,09,01,12,40,13.00
2008,09,01,12,41,13.10
2008,09,01,12,42,13.10
2008,09,01,12,43,13.00
2008,09,01,12,44,13.00
2008,09,01,12,45,12.90
2008,09,01,12,46,13.00
2008,09,01,12,47,13.10
2008,09,01,12,48,13.10
2008,09,01,12,49,13.00
2008,09,01,12,50,12.90
2008,09,01,12,51,12.90
2008,09,01,12,52,12.90
2008,09,01,12,53,12.80
2008,09,01,12,54,12.90
2008,09,01,12,55,13.00
2008,09,01,12,56,13.10
2008,09,01,12,57,13.20
2008,09,01,12,58,13.20
2008,09,01,12,59,13.10
2008,09,01,13,00,13.00
2008,09,01,13,01,13.00
2008,09,01,13,02,12.90
2008,09,01,13,03,12.90
2008,09,01,13,04,13.00
2008,09,01,13,05,12.90
2008,09,01,13,06,12.90
2008,09,01,13,07,12.80
2008,09,01,13,08,12.80
2008,09,01,13,09,12.80
2008,09,01,13,10,12.90
2008,09,01,13,11,12.90
2008,09,01,13,12,12.90
2008,09,01,13,13,13.00
2008,09,01,13,14,12.90
2008,09,01,13,15,12.80
2008,09,01,13,16,12.80
2008,09,01,13,17,12.80
2008,09,01,13,18,12.70
2008,09,01,13,19,12.70
2008,09,01,13,20,12.80
2008,09,01,13,21,12.80
2008,09,01,13,22,12.80
2008,09,01,13,23,12.90
2008,09,01,13,24,13.00
2008,09,01,13,25,13.10
2008,09,01,13,26,13.10
2008,09,01,13,27,13.20
2008,09,01,13,28,13.20
2008,09,01,13,29,13.20
2008,09,01,13,30,13.30
2008,09,01,13,31,13.30
2008,09,01,13,32,13.40
2008,09,01,13,33,13.50
2008,09,01,13,34,13.60
2008,09,01,13,35,13.70
2008,09,01,13,36,13.60
2008,09,01,13,37,13.60
2008,09,01,13,38,13.70
2008,09,01,13,39,13.70
2008,09,01,13,40,13.60
2008,09,01,13,41,13.50
2008,09,01,13,42,13.50
2008,09,01,13,43,13.40
2008,09,01,13,44,13.40
2008,09,01,13,45,13.40
2008,09,01,13,46,13.40
2008,09,01,13,47,13.50
2008,09,01,13,48,13.50
2008,09,01,13,49,13.50
2008,09,01,13,50,13.60
2008,09,01,13,51,13.60
2008,09,01,13,52,13.60
2008,09,01,13,53,13.60
2008,09,01,13,54,13.60
2008,09,01,13,55,13.60
2008,09,01,13,56,13.70
2008,09,01,13,57,13.70
2008,09,01,13,58,13.80
2008,09,01,13,59,13.90
2008,09,01,14,00,13.90
2008,09,01,14,01,13.90
2008,09,01,14,02,13.90
2008,09,01,14,03,13.90
2008,09,01,14,04,14.00
2008,09,01,14,05,14.20
2008,09,01,14,06,14.30
2008,09,01,14,07,14.50
2008,09,01,14,08,14.60
2008,09,01,14,09,14.60
2008,09,01,14,10,14.60
2008,09,01,14,11,14.70
2008,09,01,14,12,14.70
2008,09,01,14,13,14.60
2008,09,01,14,14,14.40
2008,09,01,14,15,14.20
2008,09,01,14,16,14.10
2008,09,01,14,17,14.10
2008,09,01,14,18,14.00
2008,09,01,14,19,13.90
2008,09,01,14,20,13.90
2008,09,01,14,21,13.90
2008,09,01,14,22,13.90
2008,09,01,14,23,13.80
2008,09,01,14,24,13.80
2008,09,01,14,25,13.80
2008,09,01,14,26,13.90
2008,09,01,14,27,13.90
2008,09,01,14,28,13.90
2008,09,01,14,29,14.00
2008,09,01,14,30,14.00
2008,09,01,14,31,14.00
2008,09,01,14,32,14.00
2008,09,01,14,33,13.90
2008,09,01,14,34,13.90
2008,09,01,14,35,13.90
2008,09,01,14,36,13.90
2008,09,01,14,37,13.80
2008,09,01,14,38,13.80
2008,09,01,14,39,13.80
2008,09,01,14,40,13.80
2008,09,01,14,41,13.70
2008,09,01,14,42,13.70
2008,09,01,14,43,13.70
2008,09,01,14,44,13.70
2008,09,01,14,45,13.70
2008,09,01,14,46,13.70
2008,09,01,14,47,13.70
2008,09,01,14,48,13.80
2008,09,01,14,49,13.90
2008,09,01,14,50,13.90
2008,09,01,14,51,14.00
2008,09,01,14,52,14.10
2008,09,01,14,53,14.10
2008,09,01,14,54,14.20
2008,09,01,14,55,14.10
2008,09,01,14,56,14.20
2008,09,01,14,57,14.20
2008,09,01,14,58,14.20
2008,09,01,14,59,14.30
2008,09,01,15,00,14.30
2008,09,01,15,01,14.20
2008,09,01,15,02,14.20
2008,09,01,15,03,14.20
2008,09,01,15,04,14.20
2008,09,01,15,05,14.20
2008,09,01,15,06,14.20
2008,09,01,15,07,14.30
2008,09,01,15,08,14.40
2008,09,01,15,09,14.50
2008,09,01,15,10,14.60
2008,09,01,15,11,14.70
2008,09,01,15,12,14.70
2008,09,01,15,13,14.80
2008,09,01,15,14,14.80
2008,09,01,15,15,14.80
2008,09,01,15,16,14.70
2008,09,01,15,17,14.60
2008,09,01,15,18,14.50
2008,09,01,15,19,14.40
2008,09,01,15,20,14.30
2008,09,01,15,21,14.30
2008,09,01,15,22,14.30
2008,09,01,15,23,14.30
2008,09,01,15,24,14.30
2008,09,01,15,25,14.30
2008,09,01,15,26,14.30
2008,09,01,15,27,14.40
2008,09,01,15,28,14.40
2008,09,01,15,29,14.60
2008,09,01,15,30,14.60
2008,09,01,15,31,14.70
2008,09,01,15,32,14.70
2008,09,01,15,33,14.60
2008,09,01,15,34,14.60
2008,09,01,15,35,14.60
2008,09,01,15,36,14.60
2008,09,01,15,37,14.70
2008,09,01,15,38,14.80
2008,09,01,15,39,14.80
2008,09,01,15,40,14.60
2008,09,01,15,41,14.30
2008,09,01,15,42,14.10
2008,09,01,15,43,13.90
2008,09,01,15,44,13.80
2008,09,01,15,45,13.70
2008,09,01,15,46,13.70
2008,09,01,15,47,13.60
2008,09,01,15,48,13.60
2008,09,01,15,49,13.70
2008,09,01,15,50,13.80
2008,09,01,15,51,13.80
2008,09,01,15,52,13.80
2008,09,01,15,53,13.80
2008,09,01,15,54,13.80
2008,09,01,15,55,13.80
2008,09,01,15,56,13.90
2008,09,01,15,57,13.90
2008,09,01,15,58,14.00
2008,09,01,15,59,14.00
2008,09,01,16,00,13.90
2008,09,01,16,01,14.00
2008,09,01,16,02,14.00
2008,09,01,16,03,14.00
2008,09,01,16,04,13.90
2008,09,01,16,05,13.90
2008,09,01,16,06,14.00
2008,09,01,16,07,14.10
2008,09,01,16,08,14.20
2008,09,01,16,09,14.30
2008,09,01,16,10,14.30
2008,09,01,16,11,14.40
2008,09,01,16,12,14.40
2008,09,01,16,13,14.30
2008,09,01,16,14,14.30
2008,09,01,16,15,14.30
2008,09,01,16,16,14.30
2008,09,01,16,17,14.40
2008,09,01,16,18,14.50
2008,09,01,16,19,14.60
2008,09,01,16,20,14.80
2008,09,01,16,21,15.00
2008,09,01,16,22,15.00
2008,09,01,16,23,15.20
2008,09,01,16,24,15.40
2008,09,01,16,25,15.50
2008,09,01,16,26,15.80
2008,09,01,16,27,15.90
2008,09,01,16,28,16.00
2008,09,01,16,29,16.10
2008,09,01,16,30,16.20
2008,09,01,16,31,16.30
2008,09,01,16,32,16.40
2008,09,01,16,33,16.40
2008,09,01,16,34,16.50
2008,09,01,16,35,16.50
2008,09,01,16,36,16.40
2008,09,01,16,37,16.30
2008,09,01,16,38,16.30
2008,09,01,16,39,16.30
2008,09,01,16,40,16.20
2008,09,01,16,41,16.20
2008,09,01,16,42,16.10
2008,09,01,16,43,16.10
2008,09,01,16,44,16.10
2008,09,01,16,45,16.10
2008,09,01,16,46,16.10
2008,09,01,16,47,16.10
2008,09,01,16,48,16.20
2008,09,01,16,49,16.20
2008,09,01,16,50,16.20
2008,09,01,16,51,16.30
2008,09,01,16,52,16.30
2008,09,01,16,53,16.40
2008,09,01,16,54,16.40
2008,09,01,16,55,16.30
2008,09,01,16,56,16.30
2008,09,01,16,57,16.30
2008,09,01,16,58,16.30
2008,09,01,16,59,16.20
2008,09,01,17,00,16.20
2008,09,01,17,01,16.20
2008,09,01,17,02,16.20
2008,09,01,17,03,16.10
2008,09,01,17,04,16.00
2008,09,01,17,05,15.90
2008,09,01,17,06,15.80
2008,09,01,17,07,15.80
2008,09,01,17,08,15.80
2008,09,01,17,09,15.80
2008,09,01,17,10,15.80
2008,09,01,17,11,15.90
2008,09,01,17,12,15.80
2008,09,01,17,13,15.80
2008,09,01,17,14,15.70
2008,09,01,17,15,15.70
2008,09,01,17,16,15.60
2008,09,01,17,17,15.70
2008,09,01,17,18,15.70
2008,09,01,17,19,15.70
2008,09,01,17,20,15.70
2008,09,01,17,21,15.70
2008,09,01,17,22,15.60
2008,09,01,17,23,15.60
2008,09,01,17,24,15.50
2008,09,01,17,25,15.50
2008,09,01,17,26,15.40
2008,09,01,17,27,15.30
2008,09,01,17,28,15.20
2008,09,01,17,29,15.20
2008,09,01,17,30,15.10
2008,09,01,17,31,15.00
2008,09,01,17,32,15.00
2008,09,01,17,33,15.00
2008,09,01,17,34,15.00
2008,09,01,17,35,15.00
2008,09,01,17,36,15.00
2008,09,01,17,37,15.00
2008,09,01,17,38,15.00
2008,09,01,17,39,15.00
2008,09,01,17,40,15.00